| time (UTC) | temp F | wind direction | speed knots | gust knots | rain 1hr in | rain 24hr in | rain mn in | humidity % | barometer mb |
| 20260903080055 | 64 | 296 | 0.0 | 0.0 | 0.00 | 0.00 | 0.00 | 86 | 1015.9 |
| 20260903074555 | 64 | 85 | 0.0 | 1.7 | 0.00 | 0.00 | 0.00 | 85 | 1015.6 |
| 20260903073052 | 64 | 96 | 0.0 | 1.7 | 0.00 | 0.00 | 0.00 | 85 | 1016.1 |
| 20260903071616 | 64 | 97 | 0.0 | 0.0 | 0.00 | 0.00 | 0.00 | 86 | 1016.0 |
| 20260903070100 | 64 | 87 | 0.0 | 0.9 | 0.00 | 0.00 | 0.00 | 85 | 1016.2 |
| 20260903064546 | 64 | 112 | 0.0 | 0.9 | 0.00 | 0.00 | 0.00 | 86 | 1016.5 |
| 20260903063146 | 64 | 112 | 0.0 | 0.9 | 0.00 | 0.00 | 0.00 | 86 | 1016.9 |
| 20260903061543 | 64 | 18 | 0.0 | 0.9 | 0.00 | 0.00 | 0.00 | 86 | 1017.4 |
| 20260903060040 | 64 | 78 | 0.0 | 0.9 | 0.00 | 0.00 | 0.00 | 86 | 1017.8 |
| 20260903054543 | 64 | 78 | 0.0 | 0.9 | 0.00 | 0.00 | 0.00 | 87 | 1018.1 |
| 20260903053037 | 64 | 66 | 0.0 | 0.9 | 0.00 | 0.00 | 0.00 | 87 | 1018.2 |
| 20260903051538 | 64 | 67 | 0.0 | 0.9 | 0.00 | 0.00 | 0.00 | 87 | 1017.9 |
| 20260903050041 | 64 | 69 | 0.0 | 0.0 | 0.00 | 0.00 | 0.00 | 89 | 1017.8 |
| 20260903044532 | 64 | 87 | 0.0 | 0.0 | 0.00 | 0.00 | 0.00 | 90 | 1018.4 |
| 20260903043031 | 64 | 87 | 0.0 | 0.0 | 0.00 | 0.00 | 0.00 | 91 | 1018.6 |
| 20260903041530 | 64 | 87 | 0.0 | 0.0 | 0.00 | 0.00 | 0.00 | 91 | 1018.4 |
| 20260903040027 | 64 | 87 | 0.0 | 0.0 | 0.00 | 0.00 | 0.00 | 91 | 1018.4 |
| 20260903034528 | 64 | 87 | 0.0 | 0.0 | 0.00 | 0.00 | 0.00 | 90 | 1018.4 |
| 20260903033024 | 64 | 87 | 0.0 | 0.0 | 0.00 | 0.00 | 0.00 | 90 | 1018.7 |
| 20260903031522 | 64 | 87 | 0.0 | 0.0 | 0.00 | 0.00 | 0.00 | 90 | 1019.0 |
| 20260903030021 | 64 | 87 | 0.0 | 0.0 | 0.00 | 0.00 | 0.00 | 90 | 1019.1 |
| 20260903024521 | 64 | 87 | 0.0 | 0.0 | 0.00 | 0.00 | 0.00 | 90 | 1019.3 |
| 20260903023033 | 64 | 87 | 0.0 | 0.0 | 0.00 | 0.00 | 0.00 | 89 | 1019.4 |
| 20260903021520 | 64 | 87 | 0.0 | 0.0 | 0.00 | 0.00 | 0.00 | 89 | 1019.2 |
| 20260903020019 | 64 | 87 | 0.0 | 0.0 | 0.00 | 0.00 | 0.00 | 88 | 1019.4 |
| 20260903014522 | 64 | 87 | 0.0 | 0.0 | 0.00 | 0.00 | 0.00 | 87 | 1019.7 |
| 20260903013019 | 64 | 86 | 0.0 | 1.7 | 0.00 | 0.00 | 0.00 | 88 | 1019.5 |
| 20260903011521 | 0 | 0.0 | 0.0 | 0.00 | 0.00 | 0.00 | 1019.1 | ||
| 20260903010010 | 65 | 120 | 0.0 | 1.7 | 0.00 | 0.00 | 0.00 | 87 | 1019.3 |
| 20260903004509 | 65 | 150 | 0.0 | 1.7 | 0.00 | 0.00 | 0.00 | 87 | 1019.3 |
| 20260903003009 | 65 | 97 | 0.0 | 2.6 | 0.00 | 0.00 | 0.00 | 86 | 1019.4 |
| 20260903001519 | 65 | 123 | 0.0 | 3.5 | 0.00 | 0.00 | 0.00 | 85 | 1019.5 |
| 20260903000016 | 66 | 93 | 0.0 | 1.7 | 0.00 | 0.00 | 0.00 | 84 | 1019.6 |
| 20260902234507 | 66 | 117 | 0.0 | 2.6 | 0.00 | 0.00 | 0.00 | 82 | 1020.0 |
| 20260902233009 | 66 | 120 | 0.0 | 2.6 | 0.00 | 0.00 | 0.00 | 81 | 1020.1 |
| 20260902231511 | 66 | 102 | 0.0 | 1.7 | 0.00 | 0.00 | 0.00 | 79 | 1020.3 |
| 20260902230005 | 67 | 134 | 0.0 | 1.7 | 0.00 | 0.00 | 0.00 | 77 | 1020.1 |
| 20260902224508 | 67 | 110 | 0.0 | 2.6 | 0.00 | 0.00 | 0.00 | 75 | 1020.1 |
| 20260902223009 | 68 | 91 | 0.0 | 2.6 | 0.00 | 0.00 | 0.00 | 73 | 1020.6 |
| 20260902221505 | 68 | 170 | 0.0 | 1.7 | 0.00 | 0.00 | 0.00 | 71 | 1020.7 |
| 20260902220003 | 68 | 158 | 0.0 | 3.5 | 0.00 | 0.00 | 0.00 | 69 | 1020.5 |
| 20260902214501 | 68 | 77 | 0.0 | 4.3 | 0.00 | 0.01 | 0.00 | 67 | 1020.3 |
| 20260902213001 | 69 | 161 | 0.0 | 4.3 | 0.00 | 0.01 | 0.00 | 65 | 1020.5 |
| 20260902211559 | 69 | 122 | 0.0 | 3.5 | 0.00 | 0.01 | 0.00 | 66 | 1020.3 |
| 20260902210059 | 69 | 125 | 0.0 | 3.5 | 0.00 | 0.01 | 0.00 | 68 | 1020.0 |
| 20260902204607 | 70 | 125 | 0.0 | 4.3 | 0.00 | 0.01 | 0.00 | 66 | 1020.4 |
| 20260902203058 | 71 | 72 | 0.0 | 4.3 | 0.00 | 0.01 | 0.00 | 65 | 1020.5 |
| 20260902201623 | 71 | 146 | 0.9 | 4.3 | 0.00 | 0.01 | 0.00 | 64 | 1020.8 |
| 20260902200056 | 71 | 220 | 0.0 | 3.5 | 0.00 | 0.01 | 0.00 | 68 | 1020.9 |
| 20260902194555 | 70 | 123 | 0.9 | 6.1 | 0.00 | 0.04 | 0.00 | 69 | 1020.9 |
| 20260902193054 | 70 | 229 | 0.0 | 1.7 | 0.00 | 0.04 | 0.00 | 73 | 1021.0 |
| 20260902191554 | 70 | 240 | 0.0 | 2.6 | 0.00 | 0.04 | 0.00 | 73 | 1021.2 |
| 20260902190053 | 70 | 89 | 0.0 | 3.5 | 0.00 | 0.04 | 0.00 | 71 | 1021.2 |
| 20260902184553 | 70 | 99 | 0.0 | 3.5 | 0.00 | 0.10 | 0.00 | 68 | 1021.2 |
| 20260902183051 | 70 | 146 | 0.0 | 4.3 | 0.00 | 0.10 | 0.00 | 71 | 1021.3 |
| 20260902181550 | 70 | 152 | 0.0 | 4.3 | 0.00 | 0.10 | 0.00 | 72 | 1021.0 |
| 20260902180048 | 70 | 139 | 0.0 | 3.5 | 0.00 | 0.10 | 0.00 | 73 | 1021.1 |
| 20260902174552 | 70 | 142 | 0.9 | 3.5 | 0.00 | 0.11 | 0.00 | 75 | 1021.2 |
| 20260902173048 | 70 | 106 | 0.0 | 1.7 | 0.00 | 0.11 | 0.00 | 75 | 1021.2 |
| 20260902171548 | 70 | 26 | 0.0 | 1.7 | 0.00 | 0.11 | 0.00 | 75 | 1021.3 |
| 20260902170046 | 70 | 141 | 0.0 | 4.3 | 0.00 | 0.11 | 0.00 | 74 | 1021.5 |
| 20260902164547 | 69 | 88 | 0.0 | 2.6 | 0.00 | 0.11 | 0.00 | 78 | 1021.3 |
| 20260902163042 | 69 | 110 | 0.0 | 0.9 | 0.00 | 0.11 | 0.00 | 80 | 1021.7 |
| 20260902161541 | 69 | 122 | 0.0 | 3.5 | 0.00 | 0.11 | 0.00 | 81 | 1021.7 |
| 20260902160038 | 69 | 101 | 0.0 | 1.7 | 0.00 | 0.11 | 0.00 | 85 | 1022.0 |
| 20260902154536 | 68 | 140 | 0.0 | 2.6 | 0.00 | 0.11 | 0.00 | 87 | 1022.1 |
| 20260902153035 | 68 | 100 | 0.0 | 4.3 | 0.00 | 0.11 | 0.00 | 87 | 1022.2 |
| 20260902151533 | 68 | 136 | 0.0 | 2.6 | 0.00 | 0.11 | 0.00 | 89 | 1022.4 |
| 20260902150031 | 67 | 141 | 0.0 | 0.9 | 0.00 | 0.11 | 0.00 | 91 | 1022.5 |
| 20260902144532 | 67 | 134 | 0.0 | 2.6 | 0.00 | 0.11 | 0.00 | 92 | 1022.5 |
| 20260902143026 | 66 | 137 | 0.0 | 1.7 | 0.00 | 0.11 | 0.00 | 94 | 1022.2 |
| 20260902141531 | 65 | 166 | 0.0 | 3.5 | 0.00 | 0.11 | 0.00 | 94 | 1022.2 |
| 20260902140019 | 64 | 134 | 0.0 | 2.6 | 0.00 | 0.11 | 0.00 | 97 | 1021.7 |
| 20260902134518 | 64 | 121 | 0.0 | 0.9 | 0.00 | 0.13 | 0.00 | 98 | 1021.6 |
| 20260902133021 | 63 | 108 | 0.0 | 3.5 | 0.00 | 0.13 | 0.00 | 98 | 1021.6 |
| 20260902131512 | 63 | 167 | 0.0 | 3.5 | 0.00 | 0.13 | 0.00 | 99 | 1021.5 |
| 20260902130022 | 62 | 154 | 0.0 | 1.7 | 0.00 | 0.13 | 0.00 | 99 | 1021.9 |
| 20260902124511 | 62 | 162 | 0.0 | 0.9 | 0.00 | 0.27 | 0.00 | 99 | 1021.8 |
| 20260902123008 | 62 | 137 | 0.0 | 0.9 | 0.00 | 0.27 | 0.00 | 99 | 1021.9 |
| 20260902121506 | 61 | 161 | 0.0 | 0.0 | 0.00 | 0.27 | 0.00 | 99 | 1022.0 |
| 20260902120005 | 61 | 162 | 0.0 | 0.0 | 0.00 | 0.27 | 0.00 | 99 | 1022.1 |
| 20260902114507 | 61 | 162 | 0.0 | 0.0 | 0.00 | 0.27 | 0.00 | 99 | 1022.1 |
| 20260902113003 | 61 | 162 | 0.0 | 0.0 | 0.00 | 0.27 | 0.00 | 99 | 1022.2 |
| 20260902111501 | 61 | 162 | 0.0 | 0.0 | 0.00 | 0.27 | 0.00 | 99 | 1021.9 |
| 20260902110101 | 61 | 162 | 0.0 | 0.0 | 0.00 | 0.27 | 0.00 | 99 | 1021.8 |
| 20260902104610 | 61 | 162 | 0.0 | 0.0 | 0.00 | 0.27 | 0.00 | 99 | 1021.5 |
| 20260902103103 | 61 | 162 | 0.0 | 0.0 | 0.00 | 0.27 | 0.00 | 99 | 1021.3 |
| 20260902101555 | 60 | 162 | 0.0 | 0.0 | 0.00 | 0.27 | 0.00 | 99 | 1021.3 |
| 20260902100054 | 60 | 161 | 0.0 | 0.0 | 0.00 | 0.27 | 0.00 | 99 | 1021.2 |
| 20260902094551 | 61 | 161 | 0.0 | 0.0 | 0.00 | 0.27 | 0.00 | 99 | 1021.0 |
| 20260902093049 | 61 | 160 | 0.0 | 0.0 | 0.00 | 0.27 | 0.00 | 99 | 1020.9 |
| 20260902091555 | 61 | 161 | 0.0 | 0.0 | 0.00 | 0.27 | 0.00 | 99 | 1020.7 |
| 20260902090048 | 61 | 156 | 0.0 | 0.0 | 0.00 | 0.27 | 0.00 | 99 | 1020.6 |
| 20260902084547 | 61 | 156 | 0.0 | 0.0 | 0.00 | 0.27 | 0.00 | 99 | 1020.5 |
| 20260902083109 | 61 | 156 | 0.0 | 1.7 | 0.00 | 0.27 | 0.00 | 99 | 1020.3 |
| 20260902081546 | 61 | 159 | 0.0 | 0.0 | 0.00 | 0.27 | 0.00 | 99 | 1020.6 |